Lapse_Rate
8.2 8.2 8.1 8.0 7.6 7.0 6.4 6.1 5.5 4.3 5.0 5.0 4.2 4.7 5.2 6.2 7.2 6.6 6.8 8.0 8.2 8.6 8.6 7.9 7.6 8.0 6.6 6.3 6.0 7.0 9.1 8.3 7.7 7.1 6.8 6.9 7.1 7.0 6.5 6.4 6.6 6.5 6.5 6.5 6.7 6.7 6.7
8.6 8.5 8.7 8.3 8.1 8.0 7.5 7.0 6.1 5.0 4.7 5.6 4.9 5.0 4.9 4.8 5.7 6.6 7.0 8.0 8.5 8.6 8.3 8.0 7.5 7.6 6.6 6.6 7.0 7.1 7.1 7.6 7.5 7.1 6.7 7.0 7.2 7.6 6.8 6.4 6.5 6.4 6.5 6.4 6.6 6.6 6.5
8.9 8.7 8.8 8.7 8.7 8.3 8.2 8.4 7.3 6.0 5.9 5.7 5.9 6.2 5.0 4.9 5.5 6.1 7.7 7.9 8.6 8.7 8.4 8.4 7.9 7.5 6.6 6.4 6.8 7.0 7.0 7.0 7.0 6.7 6.6 7.1 7.5 6.4 7.3 6.5 6.8 6.7 6.5 6.5 6.5 6.6 6.5
9.2 9.1 9.0 8.9 9.0 8.7 9.0 8.7 8.7 7.3 7.3 7.2 6.7 6.4 4.9 4.5 5.0 5.8 6.5 6.3 7.8 8.2 7.9 8.3 8.2 7.7 6.0 6.4 6.8 6.8 7.3 7.2 6.8 6.3 6.1 6.3 7.3 7.0 6.8 6.2 6.4 6.5 6.5 6.5 6.5 6.5 6.7
9.2 9.2 8.9 8.7 8.9 8.1 9.0 8.9 8.9 8.7 8.1 7.6 7.2 6.1 5.3 4.7 4.7 4.6 6.2 6.8 6.0 8.3 8.0 8.0 7.7 6.6 6.3 7.4 7.2 7.2 7.3 7.4 6.7 6.4 6.3 7.5 7.4 7.0 7.0 6.5 6.5 6.5 6.5 6.5 6.5 6.5 6.5
9.4 9.0 8.8 8.5 8.7 8.4 9.0 8.8 8.7 9.0 8.9 8.1 6.8 6.4 5.6 4.7 4.9 5.6 5.7 6.0 5.9 7.2 7.1 7.8 7.8 6.6 6.0 6.6 6.1 6.7 7.5 7.5 6.8 6.9 6.9 6.8 6.8 6.5 6.5 6.5 6.5 6.5 6.5 6.5 6.5 6.5 6.5
9.2 8.8 9.1 8.6 8.6 9.0 9.1 9.0 8.9 8.6 8.7 7.2 6.5 6.0 5.5 4.5 5.1 4.8 5.0 4.3 5.7 5.6 5.7 4.6 4.9 5.6 6.4 5.6 5.6 6.8 6.6 7.0 6.9 7.2 6.5 6.6 6.5 6.5 6.5 6.5 6.5 6.5 6.5 6.5 6.5 6.5 6.5
9.1 8.9 9.0 9.0 9.0 8.7 8.9 8.7 8.7 8.3 8.8 7.9 6.7 6.2 4.9 4.7 4.8 4.7 4.0 4.3 5.9 6.2 5.9 4.5 5.4 5.6 6.0 5.9 6.4 6.6 7.2 7.1 6.9 6.5 6.5 6.5 6.5 6.5 6.5 6.5 6.5 6.5 6.5 6.5 6.5 6.5 6.5
9.5 9.4 9.3 9.3 9.3 9.3 9.0 9.0 8.7 8.8 8.1 7.2 6.6 6.9 5.4 4.6 5.0 4.0 4.1 4.3 5.7 6.2 6.1 6.2 5.6 5.8 5.9 5.7 6.8 6.6 7.2 7.1 6.5 6.5 6.5 6.5 6.5 6.5 6.5 6.5 6.5 6.5 6.5 6.5 6.5 6.5 6.5
9.7 9.5 9.4 9.6 9.3 9.3 9.5 9.5 9.1 8.8 8.3 7.5 6.5 5.7 6.2 5.0 4.9 4.3 4.3 5.5 5.8 5.9 6.5 6.5 6.4 6.4 5.4 6.0 6.6 7.1 6.6 7.2 6.6 6.5 6.5 6.5 6.5 6.5 6.5 6.5 6.5 6.5 6.5 6.5 6.5 6.5 6.5
9.5 9.6 9.5 9.5 9.6 9.4 9.3 9.4 9.5 9.3 8.9 7.7 6.7 6.0 6.4 5.6 4.6 5.1 5.8 5.0 5.3 5.4 6.5 6.5 6.4 6.5 6.2 6.4 6.5 6.5 6.8 6.5 6.5 6.5 6.5 6.5 6.5 6.5 6.5 6.5 6.5 6.5 6.5 6.5 6.5 6.5 6.5
9.5 9.4 9.5 9.5 9.5 9.5 9.5 9.4 9.3 9.4 8.7 8.0 6.8 6.3 5.7 5.4 4.8 5.3 5.4 5.1 5.7 6.5 6.5 6.5 6.3 6.5 6.5 6.4 6.4 6.6 6.7 6.6 6.5 6.5 6.5 6.5 6.7 6.5 6.5 6.5 6.5 6.5 6.5 6.5 6.5 6.5 6.5
9.3 9.3 9.4 9.4 9.5 9.6 9.6 9.5 9.3 9.4 9.1 7.6 6.6 6.7 7.3 6.1 5.1 5.4 4.9 5.7 6.5 6.5 6.5 6.5 6.5 6.5 6.5 6.5 6.5 6.5 6.5 6.5 6.5 6.5 6.5 6.5 6.5 6.5 6.5 6.5 6.5 6.5 6.5 6.5 6.5 6.5 6.5
9.4 9.5 9.5 9.5 9.5 9.5 9.6 9.5 9.5 9.4 8.5 6.9 6.7 5.5 7.1 6.6 6.6 5.7 6.1 6.4 6.5 6.5 6.5 6.5 6.5 6.5 6.5 6.5 6.5 6.5 6.5 6.5 6.5 6.5 6.5 6.5 6.5 6.5 6.5 6.5 6.5 6.5 6.5 6.5 6.5 6.5 6.5
9.4 9.6 9.4 9.3 9.1 9.2 9.1 9.2 9.4 9.4 8.2 7.4 7.2 6.1 5.7 6.0 5.9 6.0 5.7 6.5 6.5 6.5 6.5 6.5 6.5 6.5 6.5 6.5 6.5 6.5 6.5 6.5 6.5 6.5 6.5 6.5 6.5 6.5 6.5 6.5 6.5 6.5 6.5 6.5 6.5 6.5 6.5
9.1 9.3 9.3 9.5 9.1 8.9 9.1 9.0 9.2 9.2 8.7 8.1 6.5 6.1 5.6 6.0 5.7 6.6 6.5 6.5 6.5 6.5 6.5 6.5 6.5 6.5 6.5 6.5 6.5 6.5 6.5 6.5 6.5 6.5 6.5 6.5 6.5 6.5 6.5 6.4 6.5 6.5 6.5 6.5 6.5 6.5 6.5
9.3 9.2 9.3 9.4 9.2 8.9 8.9 8.2 8.9 9.0 8.7 7.8 6.7 6.9 6.2 5.5 6.2 6.8 6.5 6.5 6.5 5.9 6.1 6.5 6.5 6.5 6.5 6.5 6.5 6.5 6.5 6.5 6.5 6.5 6.5 6.5 6.5 6.5 6.5 6.5 6.5 6.5 6.5 6.5 6.5 6.5 6.5
9.5 9.5 9.5 9.4 8.9 8.7 8.4 8.1 8.6 8.4 8.6 7.7 6.9 6.5 5.8 6.2 6.5 6.6 6.5 6.5 6.5 6.5 6.3 6.5 6.5 6.5 6.5 6.5 6.5 6.5 6.5 6.5 6.1 6.5 6.5 6.5 6.5 6.5 6.5 6.5 6.5 6.5 6.5 6.5 6.5 6.5 6.5
9.5 9.3 9.4 9.2 9.1 8.7 8.6 9.0 8.7 8.2 8.3 7.1 6.8 6.7 5.9 6.4 6.5 6.5 6.5 6.5 6.4 6.5 6.5 6.5 6.5 6.5 6.5 6.5 6.5 6.5 6.5 6.3 6.3 6.5 6.5 6.5 6.5 6.5 6.5 6.5 6.5 6.5 6.5 6.5 6.5 6.5 6.5
9.5 9.4 9.2 8.8 9.2 8.7 8.7 8.4 8.3 8.2 8.1 7.0 6.8 6.5 6.8 6.6 6.9 6.5 6.5 6.5 6.5 6.3 6.5 6.4 6.5 6.4 6.5 6.5 6.5 6.5 6.5 6.5 6.2 6.4 6.6 6.2 6.5 6.5 6.5 6.5 6.5 6.5 6.5 6.5 6.5 6.5 6.5
9.5 9.4 9.0 8.8 9.0 8.9 8.4 8.5 8.1 8.1 7.9 6.8 6.7 6.6 6.8 6.5 6.5 6.5 6.5 6.5 6.5 6.5 6.5 6.2 6.5 6.5 6.5 6.5 6.5 6.5 6.5 6.5 6.4 6.4 6.3 6.5 6.5 6.5 6.5 6.5 6.5 6.5 6.5 6.5 6.5 6.5 6.5
9.6 9.3 8.9 8.8 8.8 8.6 8.8 8.4 8.1 7.8 7.6 6.7 6.8 6.6 6.7 7.0 6.8 6.5 6.5 6.5 6.5 6.5 6.5 6.5 6.5 6.5 6.5 6.5 6.5 6.5 6.5 6.5 6.5 6.5 6.5 6.5 6.5 6.5 6.5 6.5 6.5 6.5 6.5 6.5 6.5 6.5 6.5
9.5 9.0 8.6 8.8 8.8 8.7 8.5 8.0 8.1 7.6 7.5 6.8 6.1 6.3 6.5 6.9 6.5 6.5 6.5 6.5 6.5 6.5 6.3 5.8 6.3 6.5 6.5 6.5 6.0 5.2 4.7 5.0 6.0 6.5 6.5 6.5 6.5 6.5 6.5 6.5 6.5 6.5 6.5 6.5 6.5 6.5 6.5
9.2 8.8 9.0 8.9 8.3 8.3 8.2 8.1 7.4 7.3 7.0 6.1 5.1 5.9 6.6 6.5 6.5 6.5 6.5 6.5 6.5 6.5 6.5 6.3 5.5 6.5 6.3 3.7 4.2 4.6 4.7 5.7 5.7 6.4 6.2 6.5 6.5 6.5 6.5 6.5 6.5 6.5 6.5 6.5 6.5 6.5 6.5
8.9 8.5 9.0 8.8 8.4 8.2 8.3 8.0 8.0 7.1 6.7 5.1 4.2 5.2 5.6 6.5 6.4 6.5 6.5 6.5 6.2 5.9 6.4 6.3 5.3 4.3 4.0 3.9 6.5 6.5 6.5 6.5 6.5 6.5 6.5 6.5 6.5 6.5 6.5 6.5 6.5 6.5 6.5 6.5 6.5 6.5 6.5
8.6 9.0 9.0 8.9 8.2 8.0 8.2 8.8 8.2 6.7 5.6 4.2 3.3 3.4 4.2 6.1 6.4 4.8 6.4 6.1 6.5 6.5 6.5 6.4 5.9 4.7 4.5 6.5 6.5 6.5 6.5 6.5 6.5 6.5 6.5 6.5 6.5 6.5 6.5 6.5 6.5 6.5 6.5 6.0 6.5 6.5 6.5
9.0 9.0 8.7 8.3 8.2 7.9 8.1 8.1 6.6 6.5 6.4 4.5 3.3 3.0 3.7 4.3 4.3 4.0 6.4 6.3 5.7 5.8 6.5 6.3 6.1 6.1 5.2 6.5 6.5 6.5 6.5 6.5 6.5 6.5 6.5 6.5 6.5 6.5 6.5 6.5 6.5 6.5 6.4 6.0 6.5 6.5 6.0
8.9 8.6 8.2 7.9 7.8 7.9 7.7 7.1 6.9 6.7 6.0 4.4 2.7 2.2 2.7 3.2 5.0 4.3 3.9 4.8 5.4 4.8 6.5 5.5 5.8 5.8 6.3 6.5 6.5 6.5 6.5 6.5 6.5 6.5 6.5 6.5 6.5 6.5 6.5 6.5 6.5 6.1 6.4 6.5 6.1 5.4 4.8
8.5 8.7 7.9 7.9 7.9 7.1 6.0 6.4 6.2 6.9 6.9 5.5 3.0 2.7 1.9 1.5 4.7 4.6 4.9 4.0 3.0 3.2 3.2 3.3 5.4 5.5 4.8 6.5 6.5 6.5 6.5 6.5 6.5 6.5 6.5 6.5 6.5 6.5 6.5 6.5 6.0 5.2 5.9 4.6 3.6 3.9 5.1
Wind_Speed
26 27 28 28 28 30 29 30 29 30 33 20 21 16 16 14 16 14 15 15 15 16 11 13 9 6 3 1 8 9 10 6 2 1 3 5 6 4 8 5 11 21 12 11 10 12 13
26 27 28 29 30 28 29 30 29 30 31 25 16 16 14 10 13 14 16 14 16 15 13 11 9 3 3 7 4 5 7 4 1 2 4 5 7 3 7 6 9 9 16 7 10 11 4
25 27 28 28 29 28 29 28 31 30 29 26 18 18 14 11 9 14 16 15 17 12 12 10 9 3 3 11 4 10 3 1 0 1 3 5 4 2 5 4 14 18 10 8 6 6 6
25 27 28 27 28 29 30 29 29 30 29 27 24 30 17 10 7 12 14 14 15 14 10 9 8 1 5 4 8 4 1 2 1 3 3 7 5 5 9 3 3 7 6 7 2 12 8
28 27 28 28 28 28 29 29 29 29 32 32 29 34 14 10 6 9 12 16 15 14 10 9 2 2 7 2 4 3 2 3 4 4 5 6 3 3 3 4 4 7 2 7 2 12 10
25 26 27 29 30 29 29 30 32 33 32 33 34 36 14 10 6 6 9 15 15 9 3 1 1 2 4 3 3 4 2 2 4 6 4 4 4 2 3 5 5 6 5 3 4 2 14
26 27 26 27 27 28 30 30 32 31 32 34 35 42 12 8 3 2 4 3 2 3 2 7 6 4 1 1 0 1 3 1 3 4 2 3 2 3 2 7 3 6 6 9 5 4 5
26 25 26 28 29 30 31 31 32 31 33 32 34 38 13 9 4 0 4 3 5 3 5 9 3 4 2 3 2 1 2 1 2 2 3 3 2 3 12 8 7 4 9 5 8 9 4
28 28 28 30 32 32 31 32 31 32 30 33 32 25 5 8 3 1 4 5 3 3 1 3 4 3 2 5 2 2 1 2 3 3 5 2 1 2 4 9 3 4 7 8 4 4 8
28 31 32 32 31 33 34 33 32 33 35 33 36 35 27 10 2 3 3 4 5 1 4 3 3 3 3 2 2 3 5 3 4 2 3 2 2 3 5 4 4 3 8 10 13 5 1
28 28 30 30 32 32 34 35 35 35 33 33 36 35 35 15 5 3 1 9 4 2 2 1 3 2 4 3 2 3 5 5 4 3 2 1 2 4 3 3 5 5 8 9 10 8 5
28 29 29 30 30 32 32 32 33 35 33 33 34 33 23 6 1 2 7 7 2 4 6 2 4 2 1 3 3 2 5 5 4 3 3 2 1 2 2 6 5 8 11 8 5 5 3
30 30 30 31 32 33 32 33 33 35 35 35 33 41 15 4 3 11 6 3 3 3 2 3 4 3 2 1 3 0 1 3 2 1 3 3 5 3 4 6 2 5 3 3 3 2 1
30 30 31 32 33 34 33 32 35 36 36 37 39 47 12 8 4 13 3 3 2 3 5 3 4 3 2 2 1 2 2 2 1 1 3 4 3 6 7 3 5 3 3 2 4 3 3
30 31 31 33 34 37 35 35 35 33 32 36 36 2 7 6 8 3 3 3 6 6 6 8 4 3 1 1 1 2 1 1 2 2 4 3 4 4 4 3 2 3 2 2 5 3 4
31 33 35 32 35 36 33 32 34 34 31 32 10 3 4 14 14 5 2 6 3 3 4 5 4 3 4 3 2 1 1 1 1 3 1 2 5 3 4 6 4 2 2 1 3 3 3
31 33 33 33 35 34 32 30 31 32 33 30 5 2 5 16 6 4 4 5 3 6 4 5 5 4 3 4 4 2 2 2 1 2 3 2 3 1 1 1 2 2 2 5 5 3 3
33 31 33 34 35 34 32 30 31 31 29 10 3 2 3 9 4 2 3 3 4 4 2 3 5 4 5 5 3 2 3 1 3 0 3 2 4 4 2 2 3 3 2 3 4 1 2
33 32 33 33 34 32 31 31 30 28 21 6 3 3 3 2 3 3 1 3 3 3 3 4 3 3 3 5 4 1 2 4 0 3 3 3 2 3 7 5 4 4 4 5 6 2 1
32 32 34 34 33 32 30 29 29 26 20 6 3 2 1 2 1 2 4 3 4 3 2 3 4 5 4 3 3 4 2 3 3 3 8 4 3 4 5 3 1 2 1 3 4 3 3
32 33 34 34 33 32 30 28 27 20 18 6 2 3 2 3 4 3 3 4 5 4 1 2 3 2 6 3 2 2 2 2 4 4 4 3 4 3 4 4 2 2 3 3 2 4 4
32 33 35 34 32 31 30 28 25 20 21 4 3 2 2 1 7 7 5 3 6 1 4 3 5 4 4 6 5 7 5 3 2 5 3 4 1 3 5 6 5 1 2 4 3 3 3
31 33 34 34 31 31 30 27 21 22 16 4 1 2 2 2 4 7 5 4 6 5 6 6 7 5 4 5 3 4 5 5 5 4 2 3 3 3 2 5 6 4 5 5 3 2 5
32 33 33 32 32 32 29 27 21 26 22 2 2 2 2 2 2 4 4 4 7 0 6 3 4 5 1 5 5 6 8 9 8 6 3 4 3 2 1 3 2 4 1 1 4 3 6
32 33 32 31 31 31 29 25 24 30 15 2 1 2 2 2 2 5 5 6 4 5 4 3 4 1 5 5 4 4 4 2 4 5 4 3 4 3 3 2 5 1 2 4 5 4 5
31 31 32 32 32 30 26 21 24 23 21 4 1 2 2 4 1 3 2 5 3 3 3 3 3 2 5 3 3 3 4 2 1 3 3 5 5 4 2 2 3 4 1 3 2 4 2
29 31 33 33 32 27 23 25 26 9 15 5 2 2 3 3 3 3 0 2 2 4 4 2 1 3 1 2 2 2 2 2 4 6 4 3 2 2 2 1 6 5 2 1 4 4 3
28 30 33 32 30 26 28 25 23 17 20 5 2 1 3 3 2 3 4 3 2 2 4 3 3 2 3 3 3 2 2 4 2 2 4 5 5 3 2 1 6 2 3 5 3 1 4
27 28 31 29 26 32 37 25 6 26 15 7 3 3 3 5 3 1 1 3 3 2 3 3 2 2 3 4 1 3 2 2 4 3 1 2 5 5 7 5 2 1 1 1 3 4 3
Wind_Direction
355 354 350 344 343 342 343 342 339 338 334 281 243 251 268 278 292 299 303 301 301 301 299 291 305 303 53 315 255 280 302 329 55 173 237 256 235 227 225 177 179 251 257 211 251 195 196
354 348 348 348 346 342 340 339 338 341 341 326 239 245 249 261 281 296 295 297 294 296 291 289 303 9 121 268 247 301 331 298 306 321 262 232 249 243 285 203 198 235 227 251 215 226 182
352 352 352 346 342 343 342 341 341 340 339 337 332 289 239 248 273 290 301 298 298 291 288 287 298 298 221 254 250 296 310 248 207 230 269 258 230 141 273 184 214 234 208 226 216 222 242
352 352 349 345 342 339 340 343 342 344 339 333 333 318 225 220 245 286 297 292 299 289 278 270 279 174 250 231 252 259 6 288 148 233 238 269 244 257 225 328 186 191 227 191 137 147 167
352 353 348 347 345 348 343 342 346 342 340 337 329 336 214 210 219 271 294 295 293 278 265 262 236 145 265 321 254 308 201 253 302 253 229 259 186 272 323 242 151 157 144 188 144 179 171
353 350 348 347 348 347 345 347 345 345 344 343 338 336 211 198 227 280 307 306 295 273 282 17 196 254 265 285 290 330 293 268 259 314 287 204 222 7 354 223 183 142 131 151 136 92 179
354 349 350 346 347 345 345 346 342 339 344 348 344 338 201 179 206 332 346 9 358 249 252 194 194 224 102 183 82 236 257 224 217 220 267 215 196 224 341 92 68 94 98 106 74 120 171
350 346 344 346 346 344 346 344 340 339 342 344 339 341 174 164 160 245 115 170 253 297 296 223 237 267 210 145 252 260 270 278 288 299 259 243 251 170 140 164 50 55 134 107 81 9 125
343 343 345 346 344 341 343 341 343 342 341 344 337 343 240 154 165 160 183 199 299 292 252 268 191 185 195 159 227 271 236 339 261 244 233 257 39 273 96 90 63 206 168 163 99 89 34
342 343 341 339 342 338 340 339 341 343 343 335 339 331 330 152 169 166 208 182 220 240 50 231 221 245 127 191 239 173 197 252 226 268 270 335 333 206 114 126 88 127 166 140 132 135 6
336 334 334 338 335 337 338 338 339 340 340 331 337 327 332 168 130 191 188 132 117 59 1 207 177 132 126 195 240 203 150 197 246 225 190 33 103 80 109 129 136 84 102 119 119 92 69
327 325 328 329 330 330 330 332 335 336 332 333 332 330 318 166 195 241 122 95 52 50 255 181 148 209 224 177 221 145 229 208 252 19 52 179 268 70 138 109 178 120 81 58 69 90 161
324 324 326 327 326 323 323 327 330 331 331 331 322 315 296 215 199 169 119 96 58 184 359 211 202 155 197 340 358 286 347 8 318 87 28 354 30 31 65 88 109 53 54 92 72 37 47
323 324 324 322 320 318 319 325 326 327 329 333 332 314 258 185 247 139 120 79 188 189 202 188 147 107 164 77 301 306 359 53 298 80 66 57 48 360 345 60 103 50 49 181 143 141 146
318 320 323 324 322 321 328 327 323 322 328 333 331 224 142 175 165 113 110 167 218 197 177 143 91 138 130 2 158 1 357 100 288 26 101 99 45 320 28 37 93 239 217 254 111 63 75
323 322 319 322 322 323 326 323 320 319 324 323 321 255 166 147 142 129 171 230 243 210 147 115 133 165 154 202 149 20 315 56 21 7 132 135 91 21 6 28 350 250 301 115 7 114 87
318 319 316 319 321 324 324 321 319 318 324 334 300 301 133 129 133 159 209 229 266 242 162 128 151 130 159 173 170 176 315 345 326 89 113 132 91 174 91 150 211 287 295 55 96 50 111
321 317 317 321 322 322 321 321 321 320 328 353 291 297 148 143 147 184 194 193 241 207 182 116 120 108 142 157 143 201 154 176 327 286 52 17 112 67 154 250 247 227 139 99 101 218 65
318 321 317 320 319 320 320 319 322 319 334 321 295 258 149 155 160 161 291 278 288 213 156 135 117 118 146 161 138 173 113 320 298 73 124 172 38 60 350 349 351 28 17 70 90 83 165
315 318 317 319 318 318 320 318 320 318 333 322 261 267 143 132 71 104 111 266 262 267 124 117 118 117 113 100 36 163 100 357 22 74 64 90 104 137 169 185 123 118 165 107 101 93 166
314 318 318 318 318 318 319 318 317 312 325 338 256 220 256 166 189 124 154 243 200 173 121 160 90 157 135 113 73 128 128 118 28 22 40 72 84 78 69 69 111 155 178 184 105 161 128
315 318 317 316 319 319 319 319 316 321 333 265 241 199 95 89 155 154 210 273 216 146 134 163 143 133 116 140 181 191 142 124 151 27 58 2 75 67 15 356 15 49 153 171 181 191 248
316 317 316 317 320 319 318 317 319 326 320 272 129 55 98 123 144 175 187 241 221 143 23 136 148 106 116 173 153 118 85 78 112 129 107 77 114 72 317 339 343 332 231 197 215 201 135
315 317 318 321 322 322 323 322 316 313 296 249 256 117 126 153 191 187 154 198 211 259 131 1 96 103 146 111 108 63 62 70 67 31 45 110 90 69 188 7 32 254 71 187 229 259 226
318 318 321 323 323 322 321 313 310 305 307 110 145 111 175 97 175 170 218 195 96 59 53 77 29 16 139 54 73 78 3 51 61 36 53 79 104 86 110 194 286 217 182 174 178 283 203
317 322 322 325 321 318 314 314 319 310 132 106 116 130 117 123 236 360 206 184 141 101 32 43 19 59 62 75 86 122 177 154 194 77 74 74 93 105 146 114 230 241 189 207 128 295 166
320 322 322 325 323 322 325 322 313 296 147 118 72 32 95 103 347 349 207 117 88 97 97 90 152 65 66 87 80 143 210 176 158 163 165 127 92 149 147 248 286 244 228 158 90 241 161
320 323 325 328 327 329 323 322 309 167 156 96 165 73 95 100 4 337 341 17 41 68 130 185 107 15 46 75 122 190 147 214 98 161 175 157 142 168 117 198 273 174 91 164 216 70 146
319 327 327 331 335 335 326 307 107 154 137 95 81 35 41 77 142 263 72 79 42 298 128 38 153 134 160 91 96 122 128 118 154 214 357 203 177 180 182 214 219 315 191 315 168 151 172